Вернуться в каталог

O3B MPOWER F05

АктивенСвязьMEO
NORAD 58346·PAYLOAD·🇱🇺 Luxembourg

Запущен Nov 12, 2023 с Cape Canaveral Space Force Station

Loading…

Ближайшие Пролёты (ближайшие 24 часа)

TLE

СвежийSource: CelesTrak SupGP

Эпоха: Sep 13, 2026, 15:00 UTC

1 58346C 23175A   26256.62500000  .00000000  00000+0  00000+0 0  2562
2 58346   0.0603   4.0909 0006213 185.1475 107.5118  5.00115708    13

Отслеживайте O3B MPOWER F05 в реальном времени с AllMySat

Download on the App Store